Weather History for KRZL - August, 2014

Change the Weather History Date:

Saturday, August 9, 2014

  Actual Average (KVPZ) Record (KVPZ)
Temperature  
Mean Temperature 70 °F 71 °F  
Max Temperature 80 °F 81 °F 93 °F (2001)
Min Temperature 60 °F 62 °F 50 °F (1999)
Degree Days  
Heating Degree Days 0 0  
Month to date heating degree days 0  
Since 1 June heating degree days 45  
Since 1 July heating degree days 4  
Cooling Degree Days 5 7  
Month to date cooling degree days 63  
Year to date cooling degree days 514  
Since 1 June cooling degree days 467  
Growing Degree Days 20 (Base 50)    
Moisture  
Dew Point 60 °F    
Average Humidity 73    
Maximum Humidity 94    
Minimum Humidity 48    
Precipitation  
Precipitation 0.00 in 0.12 in 0.85 in (2001)
Month to date precipitation 1.20  
Year to date precipitation 22.43  
Sea Level Pressure  
Sea Level Pressure 30.06 in    
Wind  
Wind Speed 7 mph (ENE)    
Max Wind Speed 12 mph    
Max Gust Speed 18 mph    
Visibility 10 miles    
Events      
T = Trace of Precipitation, MM = Missing Value Source: NWS Daily Summary

Daily Weather History Graph

Daily Weather History Graph

Search for Another Location

Airport or City:

Trip Planner

Search our weather history database for the weather conditions in past years. The results will help you decide how hot, cold, wet, or windy it might be!

Date:

Astronomy

Aug. 09, 2014 Rise Set
Actual Time 5:52 AM CDT 7:55 PM CDT
Civil Twilight 5:22 AM CDT 8:25 PM CDT
Nautical Twilight 4:45 AM CDT 9:01 PM CDT
Astronomical Twilight 4:05 AM CDT 9:41 PM CDT
Moon 6:56 PM CDT (8/9) 4:32 AM CDT (8/9)
Length of Visible Light 15h 02m
Length of Day
14h 02m
Waxing Gibbous, 98% of the Moon is Illuminated
Aug 9
Waxing Gibbous
Aug 10
Full
Aug 17
Last Quarter
Aug 25
New
Sep 2
First Quarter

Hourly Weather History & Observations

Time (CDT) Temp. Heat Index Dew Point Humidity Pressure Visibility Wind Dir Wind Speed Gust Speed Precip Events Conditions
12:35 AM 62.6 °F - 59.0 °F 88% 30.06 in 10.0 mi ENE 5.8 mph - N/A   Clear
12:55 AM 62.6 °F - 59.0 °F 88% 30.05 in 10.0 mi ENE 5.8 mph - N/A   Clear
1:15 AM 62.6 °F - 59.0 °F 88% 30.06 in 10.0 mi ENE 4.6 mph - N/A   Clear
1:35 AM 60.8 °F - 59.0 °F 94% 30.06 in 10.0 mi ENE 5.8 mph - N/A   Clear
1:55 AM 60.8 °F - 59.0 °F 94% 30.06 in 10.0 mi ENE 5.8 mph - N/A   Clear
2:15 AM 60.8 °F - 59.0 °F 94% 30.06 in 10.0 mi NE 5.8 mph - N/A   Clear
2:35 AM 60.8 °F - 59.0 °F 94% 30.06 in 10.0 mi NE 5.8 mph - N/A   Clear
2:55 AM 60.8 °F - 59.0 °F 94% 30.06 in 10.0 mi NE 4.6 mph - N/A   Clear
3:15 AM 60.8 °F - 59.0 °F 94% 30.06 in 10.0 mi NE 6.9 mph - N/A   Clear
3:35 AM 60.8 °F - 59.0 °F 94% 30.06 in 10.0 mi ENE 6.9 mph - N/A   Clear
3:55 AM 60.8 °F - 59.0 °F 94% 30.06 in 10.0 mi ENE 6.9 mph - N/A   Clear
4:15 AM 60.8 °F - 57.2 °F 88% 30.07 in 10.0 mi NE 6.9 mph - N/A   Clear
4:35 AM 60.8 °F - 57.2 °F 88% 30.07 in 10.0 mi NE 6.9 mph - N/A   Scattered Clouds
4:55 AM 60.8 °F - 57.2 °F 88% 30.06 in 10.0 mi ENE 8.1 mph - N/A   Scattered Clouds
5:15 AM 60.8 °F - 57.2 °F 88% 30.06 in 10.0 mi ENE 6.9 mph - N/A   Clear
5:35 AM 60.8 °F - 57.2 °F 88% 30.07 in 10.0 mi ENE 6.9 mph - N/A   Clear
5:55 AM 60.8 °F - 57.2 °F 88% 30.07 in 10.0 mi ENE 5.8 mph - N/A   Clear
6:15 AM 60.8 °F - 57.2 °F 88% 30.08 in 10.0 mi ENE 5.8 mph - N/A   Clear
6:35 AM 60.8 °F - 59.0 °F 94% 30.07 in 10.0 mi ENE 6.9 mph - N/A   Clear
6:55 AM 60.8 °F - 59.0 °F 94% 30.07 in 10.0 mi NE 6.9 mph - N/A   Clear
7:15 AM 62.6 °F - 59.0 °F 88% 30.06 in 10.0 mi ENE 9.2 mph - N/A   Clear
7:35 AM 64.4 °F - 59.0 °F 83% 30.07 in 10.0 mi ENE 9.2 mph - N/A   Clear
7:55 AM 64.4 °F - 60.8 °F 88% 30.06 in 10.0 mi East 10.4 mph - N/A   Clear
8:15 AM 66.2 °F - 60.8 °F 83% 30.07 in 10.0 mi ENE 6.9 mph - N/A   Clear
8:35 AM 68.0 °F - 60.8 °F 78% 30.08 in 10.0 mi ENE 8.1 mph - N/A   Clear
8:55 AM 69.8 °F - 60.8 °F 73% 30.08 in 10.0 mi East 5.8 mph - N/A   Clear
9:15 AM 71.6 °F - 60.8 °F 69% 30.09 in 10.0 mi ENE 8.1 mph - N/A   Clear
9:35 AM 71.6 °F - 60.8 °F 69% 30.09 in 10.0 mi ENE 8.1 mph - N/A   Clear
9:55 AM 73.4 °F - 60.8 °F 65% 30.08 in 10.0 mi ENE 9.2 mph - N/A   Mostly Cloudy
10:15 AM 73.4 °F - 60.8 °F 65% 30.09 in 10.0 mi ENE 9.2 mph - N/A   Overcast
10:35 AM 73.4 °F - 60.8 °F 65% 30.09 in 10.0 mi ENE 9.2 mph - N/A   Overcast
10:55 AM 75.2 °F - 60.8 °F 61% 30.09 in 10.0 mi ENE 10.4 mph - N/A   Overcast
11:15 AM 77.0 °F - 60.8 °F 57% 30.09 in 10.0 mi East 8.1 mph - N/A   Overcast
11:35 AM 77.0 °F - 60.8 °F 57% 30.09 in 10.0 mi ENE 8.1 mph - N/A   Overcast
11:55 AM 77.0 °F - 60.8 °F 57% 30.09 in 10.0 mi East 10.4 mph - N/A   Overcast
12:15 PM 77.0 °F - 60.8 °F 57% 30.08 in 10.0 mi East 5.8 mph - N/A   Overcast
12:35 PM 77.0 °F - 60.8 °F 57% 30.09 in 10.0 mi East 8.1 mph - N/A   Overcast
12:55 PM 77.0 °F - 60.8 °F 57% 30.08 in 10.0 mi East 6.9 mph - N/A   Overcast
1:15 PM 78.8 °F - 59.0 °F 51% 30.08 in 10.0 mi East 10.4 mph - N/A   Overcast
1:35 PM 78.8 °F - 59.0 °F 51% 30.07 in 10.0 mi East 9.2 mph - N/A   Overcast
1:55 PM 80.6 °F 81.5 °F 60.8 °F 51% 30.06 in 10.0 mi ENE 6.9 mph - N/A   Mostly Cloudy
2:15 PM 80.6 °F 81.5 °F 60.8 °F 51% 30.06 in 10.0 mi East 9.2 mph - N/A   Clear
2:35 PM 80.6 °F 81.5 °F 60.8 °F 51% 30.05 in 10.0 mi East 10.4 mph 16.1 mph N/A   Clear
2:55 PM 80.6 °F 81.5 °F 60.8 °F 51% 30.05 in 10.0 mi ENE 11.5 mph 18.4 mph N/A   Clear
3:15 PM 80.6 °F 81.5 °F 60.8 °F 51% 30.05 in 10.0 mi East 8.1 mph - N/A   Mostly Cloudy
3:55 PM 80.6 °F 81.5 °F 60.8 °F 51% 30.04 in 10.0 mi East 4.6 mph - N/A   Mostly Cloudy
4:15 PM 80.6 °F 81.5 °F 60.8 °F 51% 30.04 in 10.0 mi ENE 6.9 mph - N/A   Clear
4:55 PM 80.6 °F 81.5 °F 60.8 °F 51% 30.03 in 10.0 mi ENE 8.1 mph - N/A   Scattered Clouds
5:15 PM 80.6 °F 81.1 °F 59.0 °F 48% 30.03 in 10.0 mi ENE 5.8 mph - N/A   Mostly Cloudy
5:35 PM 80.6 °F 81.1 °F 59.0 °F 48% 30.03 in 10.0 mi ENE 6.9 mph - N/A   Mostly Cloudy
5:55 PM 80.6 °F 81.1 °F 59.0 °F 48% 30.03 in 10.0 mi ENE 6.9 mph - N/A   Scattered Clouds
6:15 PM 78.8 °F - 60.8 °F 54% 30.02 in 10.0 mi NNE 3.5 mph - N/A   Clear
6:35 PM 78.8 °F - 60.8 °F 54% 30.03 in 10.0 mi NE 4.6 mph - N/A   Clear
6:55 PM 77.0 °F - 60.8 °F 57% 30.02 in 10.0 mi NE 4.6 mph - N/A   Clear
7:15 PM 75.2 °F - 62.6 °F 65% 30.03 in 10.0 mi Calm Calm - N/A   Clear
7:35 PM 71.6 °F - 62.6 °F 73% 30.03 in 10.0 mi Calm Calm - N/A   Clear
7:55 PM 71.6 °F - 62.6 °F 73% 30.04 in 10.0 mi NNE 3.5 mph - N/A   Clear
8:15 PM 69.8 °F - 62.6 °F 78% 30.04 in 10.0 mi NE 3.5 mph - N/A   Clear
8:55 PM 68.0 °F - 62.6 °F 83% 30.05 in 10.0 mi NNE 5.8 mph - N/A   Clear
9:15 PM 69.8 °F - 60.8 °F 73% 30.05 in 10.0 mi North 5.8 mph - N/A   Scattered Clouds
9:35 PM 69.8 °F - 62.6 °F 78% 30.05 in 10.0 mi North 6.9 mph - N/A   Mostly Cloudy
9:55 PM 69.8 °F - 64.4 °F 83% 30.05 in 10.0 mi North 6.9 mph - N/A   Overcast
10:15 PM 69.8 °F - 64.4 °F 83% 30.05 in 10.0 mi NNE 6.9 mph - N/A   Overcast
11:15 PM 69.8 °F - 62.6 °F 78% 30.05 in 10.0 mi ENE 5.8 mph - N/A   Overcast
11:35 PM 69.8 °F - 62.6 °F 78% 30.04 in 10.0 mi ENE 6.9 mph - N/A   Overcast
11:55 PM 69.8 °F - 60.8 °F 73% 30.05 in 10.0 mi East 11.5 mph - N/A   Overcast